Regional Weather Roundup
Issued by NWS

Home | Current Version | Previous Version | Text Only | Print | Product List | Glossary On
Versions: 1 2 3 4 5 6 7 8 9 10 11 12 13 14 15 16 17 18 19 20 21 22 23 24 25 26 27 28 29 30 31 32 33 34 35 36 37 38 39 40 41 42 43 44 45 46 47 48 49 50
000
ASUS43 KMKX 021210
RWRWI

WISCONSIN REGIONAL WEATHER ROUNDUP
NATIONAL WEATHER SERVICE MILWAUKEE/SULLIVAN WI
600 AM CST MON MAR 02 2015

NOTE: "FAIR" INDICATES FEW OR NO CLOUDS BELOW 12,000 FEET WITH NO
SIGNIFICANT WEATHER AND/OR OBSTRUCTIONS TO VISIBILITY.

WIZ001-002-006>008-014>016-023>028-021300-
NORTHWEST WISCONSIN

CITY           SKY/WX    TMP DP  RH WIND       PRES   REMARKS
SUPERIOR ARPT  FAIR       5   2  87 SW7       30.41S WCI  -7
6HR MIN TEMP:   4; 6HR MAX TEMP:  15;

ASHLAND        CLEAR      8   3  80 SW7       30.40R WCI  -3
6HR MIN TEMP:   6; 6HR MAX TEMP:  19;

HAYWARD        PTCLDY    -5 -10  79 CALM      30.39R
6HR MIN TEMP:  -5; 6HR MAX TEMP:  16;

SIREN          MOCLDY    -3  -8  79 CALM      30.42S
6HR MIN TEMP:  -3; 6HR MAX TEMP:  15;

CUMBERLAND     PTCLDY     0  -6  78 W5        30.41R WCI -10
RICE LAKE      PTCLDY    -1  -4  87 CALM      30.44R
6HR MIN TEMP:  -2; 6HR MAX TEMP:  18;

CHETEK         PTCLDY     2  -1  88 SE5       30.44R WCI  -8
6HR MIN TEMP:   2; 6HR MAX TEMP:  17;

LADYSMITH      CLEAR      5   2  88 CALM      30.42R
6HR MIN TEMP:   4; 6HR MAX TEMP:  17;

EAU CLAIRE     PTCLDY     5   1  83 CALM      30.45R
6HR MIN TEMP:   5; 6HR MAX TEMP:  18;

MENOMONIE      MOCLDY    11   5  76 W3        30.46R
6HR MIN TEMP:  10; 6HR MAX TEMP:  21;

NEW RICHMOND   PTCLDY     2  -1  85 CALM      30.45S
6HR MIN TEMP:   1; 6HR MAX TEMP:  18;

OSCEOLA        PTCLDY     2  -1  86 CALM      30.48S
6HR MIN TEMP:   1; 6HR MAX TEMP:  19;

$$

WIZ003>005-009-010-017-018-021300-
NORTH CENTRAL WISCONSIN

CITY           SKY/WX    TMP DP  RH WIND       PRES   REMARKS
MANITOWISH WTR FLURRIES   8   3  81 W3        30.32R
6HR MIN TEMP:   8; 6HR MAX TEMP:  17;

ARBOR VITAE    FLURRIES  12   5  76 NW6       30.32R WCI   2
6HR MIN TEMP:  12; 6HR MAX TEMP:  19;

WOODRUFF       FLURRIES  12   5  76 NW6       30.32R WCI   2
6HR MIN TEMP:  12; 6HR MAX TEMP:  19;

RHINELANDER    CLOUDY    13   3  64 NW8       30.32R WCI   2
6HR MIN TEMP:  11; 6HR MAX TEMP:  16; 6HR PCP: TRACE;

EAGLE RIVER    FLURRIES  13   5  70 W8        30.30R WCI   2
6HR MIN TEMP:  12; 6HR MAX TEMP:  17;

LAND O LAKES   FLURRIES  14   6  69 NW10G16   30.29S WCI   2
6HR MIN TEMP:  14; 6HR MAX TEMP:  18;

PHILLIPS       MOCLDY     5   2  86 CALM      30.36R
6HR MIN TEMP:   5; 6HR MAX TEMP:  16;

TOMAHAWK       CLEAR      7   2  81 CALM      30.36R
6HR MIN TEMP:   7; 6HR MAX TEMP:  15;

MEDFORD        PTCLDY     6   3  87 W6        30.38R WCI  -4
6HR MIN TEMP:   6; 6HR MAX TEMP:  14;

MERRILL        CLEAR      6   3  85 W3        30.37R
6HR MIN TEMP:   6; 6HR MAX TEMP:  14;

$$

WIZ029-030-035-036-043>047-021300-
CENTRAL WISCONSIN

CITY           SKY/WX    TMP DP  RH WIND       PRES   REMARKS
WAUSAU         CLEAR      8   3  80 NW7       30.37R WCI  -3
6HR MIN TEMP:   8; 6HR MAX TEMP:  14;

MOSINEE          N/A      9   5  85 W9        30.39R WCI  -5
MARSHFIELD     PTCLDY     6   1  80 NW7       30.40R WCI  -6
6HR MIN TEMP:   6; 6HR MAX TEMP:  16;

STEVENS POINT  CLEAR     10   4  78 W5        30.42R WCI   1
6HR MIN TEMP:  10; 6HR MAX TEMP:  15;

WAUPACA        CLEAR     13   6  75 W8        30.43R WCI   1
6HR MIN TEMP:  13; 6HR MAX TEMP:  19;

WAUTOMA        CLEAR      9   5  83 W5        30.44R WCI   1
6HR MIN TEMP:   8; 6HR MAX TEMP:  17;

WISC RAPIDS    CLEAR      4   1  88 NW3       30.44R
6HR MIN TEMP:   4; 6HR MAX TEMP:  15;

CAMP DOUGLAS   CLEAR      9   8  97 NW8       30.45R WCI  -3
6HR MIN TEMP:   7; 6HR MAX TEMP:  16;

$$

WIZ011>013-019>022-031-037>040-048>050-021300-
NORTHEAST WISCONSIN

CITY           SKY/WX    TMP DP  RH WIND       PRES   REMARKS
ANTIGO         CLEAR      2  -1  90 W5        30.34R WCI  -8
6HR MIN TEMP:   1; 6HR MAX TEMP:  14;

SHAWANO        CLEAR     14   7  74 W5        30.40R WCI   6
6HR MIN TEMP:  13; 6HR MAX TEMP:  19;

OCONTO         CLEAR      6   3  86 W5        30.40R WCI  -3
6HR MIN TEMP:   6; 6HR MAX TEMP:  16;

STURGEON BAY   CLOUDY    14   5  67 W8        30.39R WCI   3
6HR MIN TEMP:  14; 6HR MAX TEMP:  18;

GREEN BAY      CLEAR     11   6  81 W8        30.40R WCI  -1
6HR MIN TEMP:  11; 6HR MAX TEMP:  17;

MANITOWOC      CLEAR     13   8  81 NW7       30.41R WCI   3
6HR MIN TEMP:  13; 6HR MAX TEMP:  19;

APPLETON       CLEAR     10   3  72 W10       30.39R WCI  -3
CLINTONVILLE   CLEAR     10   5  79 W6        30.40R WCI   1
OSHKOSH        CLEAR     13   6  74 W8        30.41R WCI   2
6HR MIN TEMP:  12; 6HR MAX TEMP:  17;

$$

WIZ032>034-041-042-053>061-021300-
SOUTHWEST WISCONSIN

CITY           SKY/WX    TMP DP  RH WIND       PRES   REMARKS
LA CROSSE      CLEAR     12   8  84 NW5       30.47R WCI   4
6HR MIN TEMP:   9; 6HR MAX TEMP:  18;

SPARTA         CLEAR      0  -3  87 CALM      30.46R
6HR MIN TEMP:  -1; 6HR MAX TEMP:  14;

VIROQUA        MOCLDY    12  11  95 W7        30.42R WCI   1
6HR MIN TEMP:   9; 6HR MAX TEMP:  15;

BOSCOBEL       PTCLDY     2  -3  80 CALM      30.48R
6HR MIN TEMP:   1; 6HR MAX TEMP:  15;

PRAIRIE DU CHI PTCLDY     7   3  84 CALM      30.49R
6HR MIN TEMP:   6; 6HR MAX TEMP:  17;

PLATTEVILLE    PTCLDY     9   6  88 SW6       30.46R WCI  -1
6HR MIN TEMP:   8; 6HR MAX TEMP:  12;

$$

WIZ056-057-062-063-064-067-068-021300-
SOUTH CENTRAL WISCONSIN

CITY           SKY/WX    TMP DP  RH WIND       PRES   REMARKS
REEDSBURG      CLEAR      4   2  88 CALM      30.44R
6HR MIN TEMP:   4; 6HR MAX TEMP:  17;

BARABOO/DELLS  CLEAR     10   6  85 CALM      30.43R
6HR MIN TEMP:   6; 6HR MAX TEMP:  17;

LONE ROCK      PTCLDY     0  -3  87 CALM      30.47R
6HR MIN TEMP:  -2; 6HR MAX TEMP:  16;

MINERAL POINT  MOCLDY    10   7  85 CALM      30.42R
MADISON        PTCLDY     8   4  83 CALM      30.43R
6HR MIN TEMP:   7; 6HR MAX TEMP:  16;

MIDDLETON      PTCLDY     6   2  83 CALM      30.43S
6HR MIN TEMP:   6; 6HR MAX TEMP:  17;

WATERTOWN      CLEAR      4   1  86 CALM      30.42S
6HR MIN TEMP:   4; 6HR MAX TEMP:  15;

MONROE         MOCLDY    12  10  92 W14       30.43R WCI  -3
JANESVILLE     CLEAR     10   9  92 CALM      30.44R
$$

WIZ051-052-058>065-066-070>072-021300-
SOUTHEAST WISCONSIN

CITY           SKY/WX    TMP DP  RH WIND       PRES   REMARKS
MILWAUKEE      CLEAR     18   8  65 W8        30.43R WCI   8
6HR MIN TEMP:  16; 6HR MAX TEMP:  21;

WAUKESHA       CLEAR     12   7  79 W7        30.42S WCI   2
MILWAUKEE/TIMM CLEAR     12   7  79 CALM      30.42S
RACINE         PTCLDY    12   5  73 W9        30.45R WCI   0
6HR MIN TEMP:  12; 6HR MAX TEMP:  19;

BURLINGTON     PTCLDY     5   2  86 SW3       30.43S
6HR MIN TEMP:   5; 6HR MAX TEMP:  15;

KENOSHA        PTCLDY    11   6  81 W8        30.42S WCI  -1
6HR MIN TEMP:   7; 6HR MAX TEMP:  17;

FOND DU LAC    FAIR      12   5  73 SW5       30.42R WCI   4
6HR MIN TEMP:  12; 6HR MAX TEMP:  17;

SHEBOYGAN      CLEAR     14   6  70 W9        30.40R WCI   2
6HR MIN TEMP:  14; 6HR MAX TEMP:  19;

WEST BEND      CLEAR     16   9  73 W7        30.41R WCI   6
JUNEAU         CLEAR      8   5  85 CALM      30.43R
6HR MIN TEMP:   7; 6HR MAX TEMP:  13;

$$

LSZ147-162-021300-
LAKE SUPERIOR

STATION/POSITION TIME  TEMP    WIND        PRES    WAVE
                       AIR SEA DIR/SP/G            HT/PER
                 (UTC) (F)     (DEG/KT/KT) (MB)    (FT/S)
DEVILS ISLAND    1200   16     270/  8/ 10 1030.2R
PORT WING        1100   12     230/  4/  7 1029.1
SAXON HARBOR     1100   13     200/  7/  8 1029.1R
$$

LMZ867-665-643>646-021300-
LAKE MICHIGAN

STATION/POSITION TIME  TEMP    WIND        PRES    WAVE



USA.gov is the U.S. government's official web portal to all federal, state and local government web resources and services.